Location: *
(44.3683°N, 6.6958°E)
Time: 07:44:02
(UTC+00:00)

STARLINK-55 - Pass Details

Date: 14 October 2019
Orbit: 548 x 551 km, 53.0° (Epoch: 11 November)

Event Time Altitude Azimuth Distance (km) Brightness Sun altitude
Rises 18:12:53 0° 251° (WSW) 2,708 8.5 -15.3°
Reaches altitude 10° 18:15:09 10° 256° (WSW) 1,818 7.5 -15.7°
Maximum altitude 18:19:11 51° 333° (NNW) 696 4.3 -16.4°
Enters shadow 18:21:46 21° 43° (NE) 1,281 5.1 -16.9°
